Lid_Strength_Index
0 -0 -0 -0 -0 -0 -1 -1 -1 -0 -0 -1 -1 -1 -1 -1 -1 1 3 2 3 6 5 4 5 7 6 8 10 8 9 9 10 13 13 14 14 13 14 12 12 14 16 15 13 15 16 8 9 11 9 8 7 7
0 -0 -0 -0 -1 -1 -1 -1 -1 -1 -0 -0 -0 -0 -1 -1 -1 -0 3 1 1 4 6 3 3 2 3 4 7 8 8 8 8 11 11 11 13 12 14 16 10 15 12 14 13 14 9 8 9 8 7 8 8 8
0 0 -0 -0 -0 -0 -0 -0 -0 -0 -0 -0 -0 -0 -0 -0 -1 0 4 4 3 5 5 7 6 4 2 3 2 8 7 6 7 6 9 10 13 11 15 14 12 10 9 12 12 9 10 8 8 7 6 7 6 6
0 0 0 0 0 0 0 0 0 0 -0 -0 -0 -0 -0 -1 -0 -0 4 4 3 5 9 8 4 5 3 4 4 4 6 5 5 6 10 11 12 9 12 11 12 10 10 11 11 9 9 8 8 7 6 6 6 6
1 1 1 1 1 1 1 1 1 1 0 0 0 0 0 0 -0 2 3 3 3 6 9 8 6 5 5 4 5 5 6 7 7 10 10 11 9 9 9 10 12 9 11 12 13 9 9 9 8 6 7 8 7 7
1 1 1 1 1 1 1 1 1 1 1 1 1 1 1 1 1 6 8 4 3 4 8 12 7 7 5 3 5 7 7 7 8 9 10 9 8 9 12 13 9 8 7 7 9 7 7 7 7 7 7 6 6 7
1 1 1 1 1 1 1 1 1 1 1 2 2 1 1 2 4 7 8 5 3 4 9 11 11 7 4 5 5 7 5 6 7 8 10 10 9 8 11 13 9 8 7 7 6 6 8 7 8 6 6 6 6 6
1 1 1 1 1 1 1 1 1 2 2 2 2 2 2 2 3 5 4 4 4 7 8 12 12 9 5 8 8 6 7 7 7 8 8 9 8 9 13 9 8 7 7 7 6 5 6 5 5 5 5 5 6 6
1 1 1 1 1 1 1 1 1 1 1 1 2 2 4 6 7 5 3 3 5 7 11 12 14 13 6 7 6 7 7 11 8 10 10 9 10 13 10 9 8 7 8 7 6 6 6 6 6 6 5 5 6 6
1 1 1 2 1 1 1 1 1 1 1 1 3 6 7 5 2 3 6 8 9 9 10 14 11 13 8 8 9 9 8 10 12 11 9 11 11 8 7 7 6 6 6 6 7 8 7 7 6 6 6 5 5 5
1 1 1 2 2 1 1 1 1 1 1 5 8 8 6 2 5 6 9 11 11 13 12 12 11 12 7 10 10 8 10 11 15 11 11 13 13 9 7 6 6 5 5 5 5 5 5 5 6 5 5 5 4 4
1 1 2 2 2 2 1 1 1 4 5 5 6 5 6 6 9 11 12 11 10 11 9 10 8 8 7 6 9 9 11 11 14 9 12 15 10 8 7 6 6 5 5 5 5 5 5 5 4 5 5 5 4 4
2 2 2 2 2 2 2 1 1 2 3 4 6 6 7 9 12 14 15 12 12 9 8 8 9 8 7 7 9 10 12 13 8 13 15 12 9 7 6 6 6 5 5 5 5 4 4 4 4 5 5 5 5 4
2 2 2 2 2 2 1 1 1 2 5 7 8 11 10 11 10 10 10 10 7 7 8 8 9 9 8 9 9 12 11 10 14 15 14 10 8 7 6 5 5 6 5 5 5 4 4 4 4 4 5 5 5 6
2 2 2 2 1 1 2 2 2 4 5 8 8 11 10 8 7 7 6 7 6 6 7 8 8 8 9 10 10 10 12 14 14 14 11 8 7 6 6 5 6 5 5 5 5 5 5 5 5 6 5 5 5 4
2 2 2 1 1 2 2 2 2 3 5 6 6 9 8 9 8 7 7 7 5 6 7 8 9 11 11 11 12 13 14 15 12 9 7 6 6 6 6 5 5 6 6 6 6 6 6 5 6 7 6 6 5 5
2 4 2 1 2 2 2 3 3 5 6 6 8 6 7 8 8 7 6 6 5 6 9 9 11 12 9 12 13 11 12 10 8 7 6 6 6 5 5 5 4 4 5 6 7 7 7 7 8 7 7 7 5 5
5 3 2 2 3 3 3 3 4 5 7 7 8 7 6 6 7 6 5 6 7 7 7 9 7 11 12 13 12 9 8 7 6 6 6 5 5 4 5 5 4 5 5 5 6 7 7 8 8 8 8 7 6 5
4 3 2 2 3 5 5 4 4 7 7 6 6 6 6 6 5 4 5 5 6 7 7 8 10 11 10 8 8 7 7 6 7 6 5 5 4 4 4 5 5 5 6 7 7 7 8 9 9 7 7 7 8 7
3 2 2 2 2 5 6 6 4 7 8 7 6 6 6 6 5 5 5 5 6 8 9 11 9 8 9 10 9 8 6 5 6 7 6 5 5 5 5 5 5 6 7 7 7 8 8 8 8 8 8 8 8 8
3 2 2 3 3 4 5 7 7 7 6 7 6 6 7 6 6 6 6 6 6 7 9 8 9 8 7 7 8 7 8 6 7 7 8 7 6 6 4 5 5 6 7 7 7 7 8 9 9 8 8 8 7 8
3 2 4 2 4 4 6 5 7 6 6 7 7 7 8 8 8 7 7 7 7 7 6 6 6 6 7 8 8 8 8 7 7 7 7 7 7 7 7 7 7 8 7 8 8 8 7 7 6 6 6 6 6 7
3 3 4 4 6 9 8 5 7 7 9 8 7 9 8 8 7 6 9 8 7 5 6 6 6 6 7 8 8 8 8 8 9 9 8 8 8 8 8 8 8 8 8 8 7 7 7 8 7 7 7 7 7 7
2 4 6 7 7 9 6 8 6 8 8 9 9 10 9 8 6 8 9 8 7 6 6 6 6 6 7 8 9 9 9 9 9 9 8 9 9 9 9 10 9 9 9 9 8 8 8 9 9 9 8 8 8 8
9 8 7 12 6 8 9 9 8 9 10 8 11 10 9 7 10 10 10 8 7 6 6 6 6 6 9 9 10 9 9 9 10 10 9 9 10 9 10 10 10 9 9 9 10 9 10 9 9 9 9 8 8 8
11 8 9 8 8 9 9 10 9 9 9 9 8 8 8 8 10 10 8 6 5 5 7 7 6 8 9 9 10 10 10 10 9 10 10 9 9 10 11 11 10 9 8 9 9 8 9 9 9 8 8 8 8 8
10 9 7 5 6 7 8 7 7 8 9 10 8 9 9 11 11 8 5 4 4 3 3 4 5 8 9 9 9 9 10 9 10 11 10 9 9 9 10 10 11 10 9 8 8 8 9 9 9 8 9 9 9 8
7 7 9 7 7 6 8 8 8 9 8 7 8 10 10 10 10 7 6 4 3 4 5 7 8 8 8 9 9 9 10 10 9 10 10 10 10 10 10 9 9 8 8 8 8 8 8 9 9 9 9 10 10 9
7 6 7 8 7 7 8 8 8 7 6 7 9 9 8 6 5 5 4 4 3 5 8 8 9 8 8 8 8 9 10 10 11 12 13 13 12 11 10 9 9 9 9 8 7 7 7 8 9 9 9 9 10 9
7 5 8 7 8 9 7 6 7 6 6 6 6 6 6 6 4 3 4 4 8 9 9 8 8 9 9 10 10 11 10 10 11 12 13 13 12 11 10 10 10 9 10 9 9 9 8 9 9 9 9 10 10 10
5 6 7 7 8 6 6 6 5 5 6 6 6 7 7 6 5 4 4 6 8 8 8 9 9 9 9 9 10 11 12 11 10 10 11 11 11 10 10 10 10 10 9 9 10 10 10 10 10 10 9 9 9 9
5 6 7 8 8 5 5 6 6 6 6 7 6 6 6 6 7 6 6 7 8 9 8 8 9 10 9 9 8 9 8 10 10 10 10 10 10 10 10 10 10 9 9 9 9 9 9 9 9 9 9 9 8 8
6 6 6 6 7 7 6 6 7 7 7 7 7 6 6 7 8 7 6 6 7 8 9 8 8 8 9 9 9 9 8 9 9 8 8 9 9 10 10 10 9 9 9 9 9 9 8 8 9 8 8 8 8 7